Year,Month,Day,Hour,Minute,Value (Times are PST for temperature in C)
2015,09,14,00,00,8.70
2015,09,14,00,01,8.70
2015,09,14,00,02,8.60
2015,09,14,00,03,8.60
2015,09,14,00,04,8.50
2015,09,14,00,05,8.50
2015,09,14,00,06,8.40
2015,09,14,00,07,8.40
2015,09,14,00,08,8.40
2015,09,14,00,09,8.30
2015,09,14,00,10,8.30
2015,09,14,00,11,8.30
2015,09,14,00,12,8.30
2015,09,14,00,13,8.30
2015,09,14,00,14,8.20
2015,09,14,00,15,8.20
2015,09,14,00,16,8.20
2015,09,14,00,17,8.20
2015,09,14,00,18,8.10
2015,09,14,00,19,8.10
2015,09,14,00,20,8.10
2015,09,14,00,21,8.00
2015,09,14,00,22,8.00
2015,09,14,00,23,8.00
2015,09,14,00,24,7.90
2015,09,14,00,25,7.90
2015,09,14,00,26,7.90
2015,09,14,00,27,7.80
2015,09,14,00,28,7.80
2015,09,14,00,29,7.80
2015,09,14,00,30,7.70
2015,09,14,00,31,7.70
2015,09,14,00,32,7.70
2015,09,14,00,33,7.70
2015,09,14,00,34,7.70
2015,09,14,00,35,7.70
2015,09,14,00,36,7.60
2015,09,14,00,37,7.60
2015,09,14,00,38,7.60
2015,09,14,00,39,7.60
2015,09,14,00,40,7.60
2015,09,14,00,41,7.50
2015,09,14,00,42,7.40
2015,09,14,00,43,7.40
2015,09,14,00,44,7.40
2015,09,14,00,45,7.40
2015,09,14,00,46,7.30
2015,09,14,00,47,7.30
2015,09,14,00,48,7.30
2015,09,14,00,49,7.30
2015,09,14,00,50,7.30
2015,09,14,00,51,7.30
2015,09,14,00,52,7.30
2015,09,14,00,53,7.30
2015,09,14,00,54,7.20
2015,09,14,00,55,7.20
2015,09,14,00,56,7.20
2015,09,14,00,57,7.20
2015,09,14,00,58,7.20
2015,09,14,00,59,7.20
2015,09,14,01,00,7.10
2015,09,14,01,01,7.10
2015,09,14,01,02,7.10
2015,09,14,01,03,7.10
2015,09,14,01,04,7.10
2015,09,14,01,05,7.10
2015,09,14,01,06,7.10
2015,09,14,01,07,7.00
2015,09,14,01,08,7.00
2015,09,14,01,09,7.00
2015,09,14,01,10,7.00
2015,09,14,01,11,7.00
2015,09,14,01,12,6.90
2015,09,14,01,13,6.90
2015,09,14,01,14,6.90
2015,09,14,01,15,6.90
2015,09,14,01,16,6.90
2015,09,14,01,17,6.90
2015,09,14,01,18,6.90
2015,09,14,01,19,6.80
2015,09,14,01,20,6.80
2015,09,14,01,21,6.80
2015,09,14,01,22,6.80
2015,09,14,01,23,6.80
2015,09,14,01,24,6.80
2015,09,14,01,25,6.80
2015,09,14,01,26,6.80
2015,09,14,01,27,6.70
2015,09,14,01,28,6.70
2015,09,14,01,29,6.70
2015,09,14,01,30,6.70
2015,09,14,01,31,6.70
2015,09,14,01,32,6.70
2015,09,14,01,33,6.70
2015,09,14,01,34,6.60
2015,09,14,01,35,6.60
2015,09,14,01,36,6.60
2015,09,14,01,37,6.60
2015,09,14,01,38,6.60
2015,09,14,01,39,6.60
2015,09,14,01,40,6.60
2015,09,14,01,41,6.60
2015,09,14,01,42,6.50
2015,09,14,01,43,6.50
2015,09,14,01,44,6.50
2015,09,14,01,45,6.50
2015,09,14,01,46,6.40
2015,09,14,01,47,6.40
2015,09,14,01,48,6.40
2015,09,14,01,49,6.40
2015,09,14,01,50,6.40
2015,09,14,01,51,6.40
2015,09,14,01,52,6.30
2015,09,14,01,53,6.30
2015,09,14,01,54,6.30
2015,09,14,01,55,6.30
2015,09,14,01,56,6.30
2015,09,14,01,57,6.30
2015,09,14,01,58,6.30
2015,09,14,01,59,6.30
2015,09,14,02,00,6.30
2015,09,14,02,01,6.20
2015,09,14,02,02,6.20
2015,09,14,02,03,6.20
2015,09,14,02,04,6.20
2015,09,14,02,05,6.20
2015,09,14,02,06,6.20
2015,09,14,02,07,6.20
2015,09,14,02,08,6.20
2015,09,14,02,09,6.20
2015,09,14,02,10,6.20
2015,09,14,02,11,6.20
2015,09,14,02,12,6.20
2015,09,14,02,13,6.10
2015,09,14,02,14,6.10
2015,09,14,02,15,6.10
2015,09,14,02,16,6.10
2015,09,14,02,17,6.10
2015,09,14,02,18,6.10
2015,09,14,02,19,6.00
2015,09,14,02,20,6.00
2015,09,14,02,21,6.00
2015,09,14,02,22,6.00
2015,09,14,02,23,6.00
2015,09,14,02,24,5.90
2015,09,14,02,25,5.90
2015,09,14,02,26,5.90
2015,09,14,02,27,5.90
2015,09,14,02,28,5.80
2015,09,14,02,29,5.80
2015,09,14,02,30,5.80
2015,09,14,02,31,5.80
2015,09,14,02,32,5.80
2015,09,14,02,33,5.80
2015,09,14,02,34,5.80
2015,09,14,02,35,5.80
2015,09,14,02,36,5.80
2015,09,14,02,37,5.80
2015,09,14,02,38,5.70
2015,09,14,02,39,5.70
2015,09,14,02,40,5.70
2015,09,14,02,41,5.70
2015,09,14,02,42,5.70
2015,09,14,02,43,5.70
2015,09,14,02,44,5.60
2015,09,14,02,45,5.60
2015,09,14,02,46,5.60
2015,09,14,02,47,5.60
2015,09,14,02,48,5.60
2015,09,14,02,49,5.60
2015,09,14,02,50,5.50
2015,09,14,02,51,5.50
2015,09,14,02,52,5.50
2015,09,14,02,53,5.50
2015,09,14,02,54,5.50
2015,09,14,02,55,5.50
2015,09,14,02,56,5.50
2015,09,14,02,57,5.40
2015,09,14,02,58,5.40
2015,09,14,02,59,5.40
2015,09,14,03,00,5.40
2015,09,14,03,01,5.40
2015,09,14,03,02,5.40
2015,09,14,03,03,5.40
2015,09,14,03,04,5.40
2015,09,14,03,05,5.40
2015,09,14,03,06,5.40
2015,09,14,03,07,5.40
2015,09,14,03,08,5.40
2015,09,14,03,09,5.40
2015,09,14,03,10,5.40
2015,09,14,03,11,5.40
2015,09,14,03,12,5.30
2015,09,14,03,13,5.30
2015,09,14,03,14,5.30
2015,09,14,03,15,5.30
2015,09,14,03,16,5.30
2015,09,14,03,17,5.30
2015,09,14,03,18,5.30
2015,09,14,03,19,5.20
2015,09,14,03,20,5.20
2015,09,14,03,21,5.20
2015,09,14,03,22,5.20
2015,09,14,03,23,5.20
2015,09,14,03,24,5.20
2015,09,14,03,25,5.20
2015,09,14,03,26,5.20
2015,09,14,03,27,5.10
2015,09,14,03,28,5.10
2015,09,14,03,29,5.10
2015,09,14,03,30,5.10
2015,09,14,03,31,5.10
2015,09,14,03,32,5.10
2015,09,14,03,33,5.10
2015,09,14,03,34,5.10
2015,09,14,03,35,5.10
2015,09,14,03,36,5.00
2015,09,14,03,37,5.00
2015,09,14,03,38,5.00
2015,09,14,03,39,5.00
2015,09,14,03,40,5.00
2015,09,14,03,41,5.00
2015,09,14,03,42,4.90
2015,09,14,03,43,4.90
2015,09,14,03,44,4.90
2015,09,14,03,45,4.90
2015,09,14,03,46,4.90
2015,09,14,03,47,4.90
2015,09,14,03,48,4.90
2015,09,14,03,49,4.90
2015,09,14,03,50,4.80
2015,09,14,03,51,4.80
2015,09,14,03,52,4.80
2015,09,14,03,53,4.80
2015,09,14,03,54,4.80
2015,09,14,03,55,4.80
2015,09,14,03,56,4.80
2015,09,14,03,57,4.80
2015,09,14,03,58,4.80
2015,09,14,03,59,4.80
2015,09,14,04,00,4.80
2015,09,14,04,01,4.80
2015,09,14,04,02,4.80
2015,09,14,04,03,4.80
2015,09,14,04,04,4.80
2015,09,14,04,05,4.70
2015,09,14,04,06,4.70
2015,09,14,04,07,4.70
2015,09,14,04,08,4.70
2015,09,14,04,09,4.70
2015,09,14,04,10,4.70
2015,09,14,04,11,4.70
2015,09,14,04,12,4.70
2015,09,14,04,13,4.70
2015,09,14,04,14,4.70
2015,09,14,04,15,4.70
2015,09,14,04,16,4.60
2015,09,14,04,17,4.60
2015,09,14,04,18,4.60
2015,09,14,04,19,4.60
2015,09,14,04,20,4.60
2015,09,14,04,21,4.60
2015,09,14,04,22,4.60
2015,09,14,04,23,4.60
2015,09,14,04,24,4.60
2015,09,14,04,25,4.60
2015,09,14,04,26,4.60
2015,09,14,04,27,4.60
2015,09,14,04,28,4.60
2015,09,14,04,29,4.50
2015,09,14,04,30,4.50
2015,09,14,04,31,4.50
2015,09,14,04,32,4.50
2015,09,14,04,33,4.50
2015,09,14,04,34,4.50
2015,09,14,04,35,4.50
2015,09,14,04,36,4.40
2015,09,14,04,37,4.40
2015,09,14,04,38,4.40
2015,09,14,04,39,4.40
2015,09,14,04,40,4.40
2015,09,14,04,41,4.40
2015,09,14,04,42,4.40
2015,09,14,04,43,4.40
2015,09,14,04,44,4.40
2015,09,14,04,45,4.40
2015,09,14,04,46,4.40
2015,09,14,04,47,4.30
2015,09,14,04,48,4.30
2015,09,14,04,49,4.30
2015,09,14,04,50,4.30
2015,09,14,04,51,4.30
2015,09,14,04,52,4.30
2015,09,14,04,53,4.30
2015,09,14,04,54,4.30
2015,09,14,04,55,4.30
2015,09,14,04,56,4.30
2015,09,14,04,57,4.30
2015,09,14,04,58,4.30
2015,09,14,04,59,4.30
2015,09,14,05,00,4.30
2015,09,14,05,01,4.30
2015,09,14,05,02,4.30
2015,09,14,05,03,4.30
2015,09,14,05,04,4.30
2015,09,14,05,05,4.30
2015,09,14,05,06,4.30
2015,09,14,05,07,4.30
2015,09,14,05,08,4.30
2015,09,14,05,09,4.20
2015,09,14,05,10,4.20
2015,09,14,05,11,4.20
2015,09,14,05,12,4.20
2015,09,14,05,13,4.20
2015,09,14,05,14,4.20
2015,09,14,05,15,4.20
2015,09,14,05,16,4.20
2015,09,14,05,17,4.20
2015,09,14,05,18,4.20
2015,09,14,05,19,4.20
2015,09,14,05,20,4.20
2015,09,14,05,21,4.10
2015,09,14,05,22,4.10
2015,09,14,05,23,4.10
2015,09,14,05,24,4.10
2015,09,14,05,25,4.10
2015,09,14,05,26,4.10
2015,09,14,05,27,4.10
2015,09,14,05,28,4.10
2015,09,14,05,29,4.10
2015,09,14,05,30,4.10
2015,09,14,05,31,4.10
2015,09,14,05,32,4.10
2015,09,14,05,33,4.10
2015,09,14,05,34,4.10
2015,09,14,05,35,4.10
2015,09,14,05,36,4.00
2015,09,14,05,37,4.00
2015,09,14,05,38,4.00
2015,09,14,05,39,4.00
2015,09,14,05,40,3.90
2015,09,14,05,41,3.90
2015,09,14,05,42,3.90
2015,09,14,05,43,3.90
2015,09,14,05,44,3.90
2015,09,14,05,45,3.90
2015,09,14,05,46,3.90
2015,09,14,05,47,3.90
2015,09,14,05,48,3.90
2015,09,14,05,49,3.90
2015,09,14,05,50,3.80
2015,09,14,05,51,3.80
2015,09,14,05,52,3.80
2015,09,14,05,53,3.80
2015,09,14,05,54,3.80
2015,09,14,05,55,3.80
2015,09,14,05,56,3.80
2015,09,14,05,57,3.80
2015,09,14,05,58,3.80
2015,09,14,05,59,3.80
2015,09,14,06,00,3.80
2015,09,14,06,01,3.80
2015,09,14,06,02,3.80
2015,09,14,06,03,3.70
2015,09,14,06,04,3.70
2015,09,14,06,05,3.70
2015,09,14,06,06,3.70
2015,09,14,06,07,3.70
2015,09,14,06,08,3.70
2015,09,14,06,09,3.70
2015,09,14,06,10,3.70
2015,09,14,06,11,3.70
2015,09,14,06,12,3.70
2015,09,14,06,13,3.70
2015,09,14,06,14,3.70
2015,09,14,06,15,3.70
2015,09,14,06,16,3.70
2015,09,14,06,17,3.70
2015,09,14,06,18,3.70
2015,09,14,06,19,3.70
2015,09,14,06,20,3.70
2015,09,14,06,21,3.70
2015,09,14,06,22,3.60
2015,09,14,06,23,3.60
2015,09,14,06,24,3.60
2015,09,14,06,25,3.60
2015,09,14,06,26,3.60
2015,09,14,06,27,3.60
2015,09,14,06,28,3.60
2015,09,14,06,29,3.60
2015,09,14,06,30,3.60
2015,09,14,06,31,3.60
2015,09,14,06,32,3.60
2015,09,14,06,33,3.60
2015,09,14,06,34,3.50
2015,09,14,06,35,3.50
2015,09,14,06,36,3.50
2015,09,14,06,37,3.50
2015,09,14,06,38,3.50
2015,09,14,06,39,3.50
2015,09,14,06,40,3.40
2015,09,14,06,41,3.40
2015,09,14,06,42,3.40
2015,09,14,06,43,3.40
2015,09,14,06,44,3.40
2015,09,14,06,45,3.40
2015,09,14,06,46,3.40
2015,09,14,06,47,3.40
2015,09,14,06,48,3.40
2015,09,14,06,49,3.30
2015,09,14,06,50,3.30
2015,09,14,06,51,3.30
2015,09,14,06,52,3.30
2015,09,14,06,53,3.30
2015,09,14,06,54,3.30
2015,09,14,06,55,3.30
2015,09,14,06,56,3.30
2015,09,14,06,57,3.30
2015,09,14,06,58,3.30
2015,09,14,06,59,3.30
2015,09,14,07,00,3.30
2015,09,14,07,01,3.30
2015,09,14,07,02,3.30
2015,09,14,07,03,3.30
2015,09,14,07,04,3.30
2015,09,14,07,05,3.30
2015,09,14,07,06,3.30
2015,09,14,07,07,3.30
2015,09,14,07,08,3.30
2015,09,14,07,09,3.30
2015,09,14,07,10,3.30
2015,09,14,07,11,3.30
2015,09,14,07,12,3.30
2015,09,14,07,13,3.30
2015,09,14,07,14,3.20
2015,09,14,07,15,3.20
2015,09,14,07,16,3.20
2015,09,14,07,17,3.20
2015,09,14,07,18,3.20
2015,09,14,07,19,3.20
2015,09,14,07,20,3.20
2015,09,14,07,21,3.20
2015,09,14,07,22,3.20
2015,09,14,07,23,3.20
2015,09,14,07,24,3.20
2015,09,14,07,25,3.20
2015,09,14,07,26,3.20
2015,09,14,07,27,3.20
2015,09,14,07,28,3.20
2015,09,14,07,29,3.20
2015,09,14,07,30,3.20
2015,09,14,07,31,3.20
2015,09,14,07,32,3.20
2015,09,14,07,33,3.20
2015,09,14,07,34,3.20
2015,09,14,07,35,3.20
2015,09,14,07,36,3.20
2015,09,14,07,37,3.20
2015,09,14,07,38,3.20
2015,09,14,07,39,3.20
2015,09,14,07,40,3.30
2015,09,14,07,41,3.30
2015,09,14,07,42,3.30
2015,09,14,07,43,3.30
2015,09,14,07,44,3.30
2015,09,14,07,45,3.30
2015,09,14,07,46,3.30
2015,09,14,07,47,3.30
2015,09,14,07,48,3.30
2015,09,14,07,49,3.30
2015,09,14,07,50,3.30
2015,09,14,07,51,3.30
2015,09,14,07,52,3.30
2015,09,14,07,53,3.30
2015,09,14,07,54,3.30
2015,09,14,07,55,3.30
2015,09,14,07,56,3.30
2015,09,14,07,57,3.30
2015,09,14,07,58,3.30
2015,09,14,07,59,3.30
2015,09,14,08,00,3.30
2015,09,14,08,01,3.30
2015,09,14,08,02,3.30
2015,09,14,08,03,3.30
2015,09,14,08,04,3.30
2015,09,14,08,05,3.30
2015,09,14,08,06,3.30
2015,09,14,08,07,3.30
2015,09,14,08,08,3.30
2015,09,14,08,09,3.30
2015,09,14,08,10,3.30
2015,09,14,08,11,3.30
2015,09,14,08,12,3.30
2015,09,14,08,13,3.30
2015,09,14,08,14,3.30
2015,09,14,08,15,3.30
2015,09,14,08,16,3.40
2015,09,14,08,17,3.40
2015,09,14,08,18,3.40
2015,09,14,08,19,3.40
2015,09,14,08,20,3.50
2015,09,14,08,21,3.50
2015,09,14,08,22,3.60
2015,09,14,08,23,3.60
2015,09,14,08,24,3.70
2015,09,14,08,25,3.70
2015,09,14,08,26,3.70
2015,09,14,08,27,3.80
2015,09,14,08,28,3.80
2015,09,14,08,29,3.80
2015,09,14,08,30,3.90
2015,09,14,08,31,3.90
2015,09,14,08,32,4.00
2015,09,14,08,33,4.10
2015,09,14,08,34,4.20
2015,09,14,08,35,4.40
2015,09,14,08,36,4.50
2015,09,14,08,37,4.60
2015,09,14,08,38,4.70
2015,09,14,08,39,4.80
2015,09,14,08,40,4.90
2015,09,14,08,41,5.00
2015,09,14,08,42,5.10
2015,09,14,08,43,5.20
2015,09,14,08,44,5.30
2015,09,14,08,45,5.40
2015,09,14,08,46,5.50
2015,09,14,08,47,5.60
2015,09,14,08,48,5.60
2015,09,14,08,49,5.70
2015,09,14,08,50,5.80
2015,09,14,08,51,5.80
2015,09,14,08,52,5.80
2015,09,14,08,53,5.90
2015,09,14,08,54,5.90
2015,09,14,08,55,6.00
2015,09,14,08,56,6.00
2015,09,14,08,57,6.10
2015,09,14,08,58,6.10
2015,09,14,08,59,6.20
2015,09,14,09,00,6.20
2015,09,14,09,01,6.30
2015,09,14,09,02,6.40
2015,09,14,09,03,6.50
2015,09,14,09,04,6.60
2015,09,14,09,05,6.60
2015,09,14,09,06,6.70
2015,09,14,09,07,6.80
2015,09,14,09,08,6.90
2015,09,14,09,09,7.10
2015,09,14,09,10,7.20
2015,09,14,09,11,7.30
2015,09,14,09,12,7.40
2015,09,14,09,13,7.50
2015,09,14,09,14,7.50
2015,09,14,09,15,7.50
2015,09,14,09,16,7.60
2015,09,14,09,17,7.60
2015,09,14,09,18,7.60
2015,09,14,09,19,7.60
2015,09,14,09,20,7.60
2015,09,14,09,21,7.60
2015,09,14,09,22,7.60
2015,09,14,09,23,7.60
2015,09,14,09,24,7.60
2015,09,14,09,25,7.70
2015,09,14,09,26,7.70
2015,09,14,09,27,7.80
2015,09,14,09,28,7.80
2015,09,14,09,29,7.90
2015,09,14,09,30,8.00
2015,09,14,09,31,8.00
2015,09,14,09,32,8.10
2015,09,14,09,33,8.20
2015,09,14,09,34,8.30
2015,09,14,09,35,8.40
2015,09,14,09,36,8.40
2015,09,14,09,37,8.50
2015,09,14,09,38,8.50
2015,09,14,09,39,8.50
2015,09,14,09,40,8.60
2015,09,14,09,41,8.60
2015,09,14,09,42,8.70
2015,09,14,09,43,8.80
2015,09,14,09,44,8.80
2015,09,14,09,45,8.90
2015,09,14,09,46,8.90
2015,09,14,09,47,9.00
2015,09,14,09,48,9.10
2015,09,14,09,49,9.20
2015,09,14,09,50,9.20
2015,09,14,09,51,9.30
2015,09,14,09,52,9.30
2015,09,14,09,53,9.40
2015,09,14,09,54,9.40
2015,09,14,09,55,9.40
2015,09,14,09,56,9.40
2015,09,14,09,57,9.50
2015,09,14,09,58,9.50
2015,09,14,09,59,9.60
2015,09,14,10,00,9.70
2015,09,14,10,01,9.80
2015,09,14,10,02,9.80
2015,09,14,10,03,9.90
2015,09,14,10,04,10.00
2015,09,14,10,05,10.00
2015,09,14,10,06,10.10
2015,09,14,10,07,10.20
2015,09,14,10,08,10.20
2015,09,14,10,09,10.30
2015,09,14,10,10,10.30
2015,09,14,10,11,10.40
2015,09,14,10,12,10.50
2015,09,14,10,13,10.50
2015,09,14,10,14,10.60
2015,09,14,10,15,10.60
2015,09,14,10,16,10.70
2015,09,14,10,17,10.80
2015,09,14,10,18,10.80
2015,09,14,10,19,10.80
2015,09,14,10,20,10.80
2015,09,14,10,21,10.80
2015,09,14,10,22,10.80
2015,09,14,10,23,10.90
2015,09,14,10,24,10.90
2015,09,14,10,25,10.90
2015,09,14,10,26,10.90
2015,09,14,10,27,10.90
2015,09,14,10,28,10.90
2015,09,14,10,29,10.90
2015,09,14,10,30,10.90
2015,09,14,10,31,10.90
2015,09,14,10,32,11.00
2015,09,14,10,33,11.00
2015,09,14,10,34,11.10
2015,09,14,10,35,11.10
2015,09,14,10,36,11.10
2015,09,14,10,37,11.10
2015,09,14,10,38,11.20
2015,09,14,10,39,11.20
2015,09,14,10,40,11.30
2015,09,14,10,41,11.40
2015,09,14,10,42,11.40
2015,09,14,10,43,11.50
2015,09,14,10,44,11.50
2015,09,14,10,45,11.50
2015,09,14,10,46,11.60
2015,09,14,10,47,11.60
2015,09,14,10,48,11.60
2015,09,14,10,49,11.70
2015,09,14,10,50,11.70
2015,09,14,10,51,11.80
2015,09,14,10,52,11.90
2015,09,14,10,53,11.90
2015,09,14,10,54,11.90
2015,09,14,10,55,12.00
2015,09,14,10,56,12.00
2015,09,14,10,57,12.10
2015,09,14,10,58,12.10
2015,09,14,10,59,12.20
2015,09,14,11,00,12.30
2015,09,14,11,01,12.30
2015,09,14,11,02,12.40
2015,09,14,11,03,12.50
2015,09,14,11,04,12.60
2015,09,14,11,05,12.60
2015,09,14,11,06,12.70
2015,09,14,11,07,12.80
2015,09,14,11,08,12.80
2015,09,14,11,09,12.90
2015,09,14,11,10,12.90
2015,09,14,11,11,13.00
2015,09,14,11,12,13.00
2015,09,14,11,13,13.10
2015,09,14,11,14,13.10
2015,09,14,11,15,13.10
2015,09,14,11,16,13.10
2015,09,14,11,17,13.10
2015,09,14,11,18,13.20
2015,09,14,11,19,13.20
2015,09,14,11,20,13.20
2015,09,14,11,21,13.20
2015,09,14,11,22,13.20
2015,09,14,11,23,13.20
2015,09,14,11,24,13.20
2015,09,14,11,25,13.20
2015,09,14,11,26,13.20
2015,09,14,11,27,13.30
2015,09,14,11,28,13.30
2015,09,14,11,29,13.30
2015,09,14,11,30,13.40
2015,09,14,11,31,13.40
2015,09,14,11,32,13.50
2015,09,14,11,33,13.60
2015,09,14,11,34,13.70
2015,09,14,11,35,13.70
2015,09,14,11,36,13.70
2015,09,14,11,37,13.80
2015,09,14,11,38,13.90
2015,09,14,11,39,13.90
2015,09,14,11,40,14.00
2015,09,14,11,41,14.10
2015,09,14,11,42,14.10
2015,09,14,11,43,14.10
2015,09,14,11,44,14.20
2015,09,14,11,45,14.20
2015,09,14,11,46,14.20
2015,09,14,11,47,14.30
2015,09,14,11,48,14.30
2015,09,14,11,49,14.30
2015,09,14,11,50,14.40
2015,09,14,11,51,14.40
2015,09,14,11,52,14.50
2015,09,14,11,53,14.60
2015,09,14,11,54,14.60
2015,09,14,11,55,14.70
2015,09,14,11,56,14.80
2015,09,14,11,57,14.80
2015,09,14,11,58,14.80
2015,09,14,11,59,14.90
2015,09,14,12,00,15.00
2015,09,14,12,01,15.00
2015,09,14,12,02,15.10
2015,09,14,12,03,15.20
2015,09,14,12,04,15.10
2015,09,14,12,05,15.10
2015,09,14,12,06,15.10
2015,09,14,12,07,15.10
2015,09,14,12,08,15.20
2015,09,14,12,09,15.20
2015,09,14,12,10,15.30
2015,09,14,12,11,15.30
2015,09,14,12,12,15.40
2015,09,14,12,13,15.50
2015,09,14,12,14,15.60
2015,09,14,12,15,15.60
2015,09,14,12,16,15.60
2015,09,14,12,17,15.60
2015,09,14,12,18,15.70
2015,09,14,12,19,15.70
2015,09,14,12,20,15.80
2015,09,14,12,21,15.80
2015,09,14,12,22,15.90
2015,09,14,12,23,15.90
2015,09,14,12,24,15.80
2015,09,14,12,25,15.80
2015,09,14,12,26,15.70
2015,09,14,12,27,15.70
2015,09,14,12,28,15.70
2015,09,14,12,29,15.70
2015,09,14,12,30,15.80
2015,09,14,12,31,15.80
2015,09,14,12,32,15.90
2015,09,14,12,33,15.90
2015,09,14,12,34,16.00
2015,09,14,12,35,16.10
2015,09,14,12,36,16.10
2015,09,14,12,37,16.10
2015,09,14,12,38,16.10
2015,09,14,12,39,16.10
2015,09,14,12,40,16.00
2015,09,14,12,41,16.00
2015,09,14,12,42,16.00
2015,09,14,12,43,16.10
2015,09,14,12,44,16.20
2015,09,14,12,45,16.20
2015,09,14,12,46,16.30
2015,09,14,12,47,16.40
2015,09,14,12,48,16.50
2015,09,14,12,49,16.50
2015,09,14,12,50,16.50
2015,09,14,12,51,16.50
2015,09,14,12,52,16.50
2015,09,14,12,53,16.50
2015,09,14,12,54,16.50
2015,09,14,12,55,16.50
2015,09,14,12,56,16.50
2015,09,14,12,57,16.50
2015,09,14,12,58,16.50
2015,09,14,12,59,16.50
2015,09,14,13,00,16.50
2015,09,14,13,01,16.50
2015,09,14,13,02,16.60
2015,09,14,13,03,16.70
2015,09,14,13,04,16.70
2015,09,14,13,05,16.80
2015,09,14,13,06,16.90
2015,09,14,13,07,17.00
2015,09,14,13,08,17.10
2015,09,14,13,09,17.20
2015,09,14,13,10,17.20
2015,09,14,13,11,17.20
2015,09,14,13,12,17.20
2015,09,14,13,13,17.20
2015,09,14,13,14,17.20
2015,09,14,13,15,17.20
2015,09,14,13,16,17.20
2015,09,14,13,17,17.20
2015,09,14,13,18,17.20
2015,09,14,13,19,17.30
2015,09,14,13,20,17.30
2015,09,14,13,21,17.30
2015,09,14,13,22,17.40
2015,09,14,13,23,17.40
2015,09,14,13,24,17.50
2015,09,14,13,25,17.60
2015,09,14,13,26,17.70
2015,09,14,13,27,17.80
2015,09,14,13,28,17.90
2015,09,14,13,29,18.00
2015,09,14,13,30,18.10
2015,09,14,13,31,18.10
2015,09,14,13,32,18.00
2015,09,14,13,33,17.80
2015,09,14,13,34,17.70
2015,09,14,13,35,17.70
2015,09,14,13,36,17.60
2015,09,14,13,37,17.50
2015,09,14,13,38,17.50
2015,09,14,13,39,17.60
2015,09,14,13,40,17.70
2015,09,14,13,41,17.70
2015,09,14,13,42,17.80
2015,09,14,13,43,17.80
2015,09,14,13,44,17.90
2015,09,14,13,45,17.90
2015,09,14,13,46,17.90
2015,09,14,13,47,17.90
2015,09,14,13,48,17.80
2015,09,14,13,49,17.70
2015,09,14,13,50,17.60
2015,09,14,13,51,17.50
2015,09,14,13,52,17.50
2015,09,14,13,53,17.50
2015,09,14,13,54,17.60
2015,09,14,13,55,17.60
2015,09,14,13,56,17.60
2015,09,14,13,57,17.60
2015,09,14,13,58,17.60
2015,09,14,13,59,17.70
2015,09,14,14,00,17.70
2015,09,14,14,01,17.70
2015,09,14,14,02,17.80
2015,09,14,14,03,17.80
2015,09,14,14,04,17.90
2015,09,14,14,05,18.00
2015,09,14,14,06,18.10
2015,09,14,14,07,18.20
2015,09,14,14,08,18.30
2015,09,14,14,09,18.30
2015,09,14,14,10,18.30
2015,09,14,14,11,18.30
2015,09,14,14,12,18.30
2015,09,14,14,13,18.30
2015,09,14,14,14,18.30
2015,09,14,14,15,18.40
2015,09,14,14,16,18.50
2015,09,14,14,17,18.60
2015,09,14,14,18,18.60
2015,09,14,14,19,18.70
2015,09,14,14,20,18.70
2015,09,14,14,21,18.80
2015,09,14,14,22,18.80
2015,09,14,14,23,18.80
2015,09,14,14,24,18.70
2015,09,14,14,25,18.70
2015,09,14,14,26,18.80
2015,09,14,14,27,18.80
2015,09,14,14,28,18.90
2015,09,14,14,29,19.00
2015,09,14,14,30,19.10
2015,09,14,14,31,19.10
2015,09,14,14,32,19.10
2015,09,14,14,33,19.10
2015,09,14,14,34,19.10
2015,09,14,14,35,19.00
2015,09,14,14,36,19.00
2015,09,14,14,37,18.90
2015,09,14,14,38,19.00
2015,09,14,14,39,19.00
2015,09,14,14,40,18.90
2015,09,14,14,41,18.90
2015,09,14,14,42,18.80
2015,09,14,14,43,18.70
2015,09,14,14,44,18.70
2015,09,14,14,45,18.70
2015,09,14,14,46,18.70
2015,09,14,14,47,18.70
2015,09,14,14,48,18.70
2015,09,14,14,49,18.70
2015,09,14,14,50,18.70
2015,09,14,14,51,18.60
2015,09,14,14,52,18.60
2015,09,14,14,53,18.60
2015,09,14,14,54,18.50
2015,09,14,14,55,18.40
2015,09,14,14,56,18.40
2015,09,14,14,57,18.30
2015,09,14,14,58,18.20
2015,09,14,14,59,18.20
2015,09,14,15,00,18.10
2015,09,14,15,01,18.10
2015,09,14,15,02,18.00
2015,09,14,15,03,17.90
2015,09,14,15,04,17.90
2015,09,14,15,05,17.80
2015,09,14,15,06,17.60
2015,09,14,15,07,17.30
2015,09,14,15,08,17.10
2015,09,14,15,09,17.00
2015,09,14,15,10,17.00
2015,09,14,15,11,16.90
2015,09,14,15,12,16.80
2015,09,14,15,13,16.70
2015,09,14,15,14,16.50
2015,09,14,15,15,16.30
2015,09,14,15,16,16.10
2015,09,14,15,17,16.00
2015,09,14,15,18,15.90
2015,09,14,15,19,15.80
2015,09,14,15,20,15.70
2015,09,14,15,21,15.50
2015,09,14,15,22,15.30
2015,09,14,15,23,15.20
2015,09,14,15,24,15.10
2015,09,14,15,25,15.10
2015,09,14,15,26,15.00
2015,09,14,15,27,14.90
2015,09,14,15,28,14.80
2015,09,14,15,29,14.70
2015,09,14,15,30,14.60
2015,09,14,15,31,14.50
2015,09,14,15,32,14.50
2015,09,14,15,33,14.40
2015,09,14,15,34,14.30
2015,09,14,15,35,14.30
2015,09,14,15,36,14.30
2015,09,14,15,37,14.30
2015,09,14,15,38,14.30
2015,09,14,15,39,14.30
2015,09,14,15,40,14.30
2015,09,14,15,41,14.30
2015,09,14,15,42,14.30
2015,09,14,15,43,14.20
2015,09,14,15,44,14.20
2015,09,14,15,45,14.10
2015,09,14,15,46,14.00
2015,09,14,15,47,13.80
2015,09,14,15,48,13.60
2015,09,14,15,49,13.40
2015,09,14,15,50,13.30
2015,09,14,15,51,13.10
2015,09,14,15,52,13.00
2015,09,14,15,53,12.90
2015,09,14,15,54,12.80
2015,09,14,15,55,12.70
2015,09,14,15,56,12.70
2015,09,14,15,57,12.60
2015,09,14,15,58,12.60
2015,09,14,15,59,12.50
2015,09,14,16,00,12.50
2015,09,14,16,01,12.50
2015,09,14,16,02,12.50
2015,09,14,16,03,12.40
2015,09,14,16,04,12.40
2015,09,14,16,05,12.30
2015,09,14,16,06,12.20
2015,09,14,16,07,12.10
2015,09,14,16,08,12.00
2015,09,14,16,09,12.00
2015,09,14,16,10,11.90
2015,09,14,16,11,11.80
2015,09,14,16,12,11.80
2015,09,14,16,13,11.70
2015,09,14,16,14,11.60
2015,09,14,16,15,11.50
2015,09,14,16,16,11.40
2015,09,14,16,17,11.30
2015,09,14,16,18,11.20
2015,09,14,16,19,11.10
2015,09,14,16,20,11.00
2015,09,14,16,21,11.00
2015,09,14,16,22,10.90
2015,09,14,16,23,10.90
2015,09,14,16,24,10.90
2015,09,14,16,25,11.00
2015,09,14,16,26,11.00
2015,09,14,16,27,11.00
2015,09,14,16,28,11.00
2015,09,14,16,29,11.00
2015,09,14,16,30,11.10
2015,09,14,16,31,11.10
2015,09,14,16,32,11.20
2015,09,14,16,33,11.20
2015,09,14,16,34,11.20
2015,09,14,16,35,11.30
2015,09,14,16,36,11.30
2015,09,14,16,37,11.30
2015,09,14,16,38,11.30
2015,09,14,16,39,11.30
2015,09,14,16,40,11.30
2015,09,14,16,41,11.30
2015,09,14,16,42,11.40
2015,09,14,16,43,11.40
2015,09,14,16,44,11.50
2015,09,14,16,45,11.50
2015,09,14,16,46,11.50
2015,09,14,16,47,11.50
2015,09,14,16,48,11.50
2015,09,14,16,49,11.50
2015,09,14,16,50,11.40
2015,09,14,16,51,11.50
2015,09,14,16,52,11.50
2015,09,14,16,53,11.50
2015,09,14,16,54,11.60
2015,09,14,16,55,11.60
2015,09,14,16,56,11.60
2015,09,14,16,57,11.70
2015,09,14,16,58,11.70
2015,09,14,16,59,11.70
2015,09,14,17,00,11.70
2015,09,14,17,01,11.80
2015,09,14,17,02,11.80
2015,09,14,17,03,11.80
2015,09,14,17,04,11.80
2015,09,14,17,05,11.70
2015,09,14,17,06,11.70
2015,09,14,17,07,11.70
2015,09,14,17,08,11.70
2015,09,14,17,09,11.70
2015,09,14,17,10,11.70
2015,09,14,17,11,11.70
2015,09,14,17,12,11.60
2015,09,14,17,13,11.60
2015,09,14,17,14,11.60
2015,09,14,17,15,11.60
2015,09,14,17,16,11.60
2015,09,14,17,17,11.50
2015,09,14,17,18,11.50
2015,09,14,17,19,11.40
2015,09,14,17,20,11.40
2015,09,14,17,21,11.40
2015,09,14,17,22,11.30
2015,09,14,17,23,11.30
2015,09,14,17,24,11.30
2015,09,14,17,25,11.30
2015,09,14,17,26,11.20
2015,09,14,17,27,11.20
2015,09,14,17,28,11.20
2015,09,14,17,29,11.20
2015,09,14,17,30,11.20
2015,09,14,17,31,11.10
2015,09,14,17,32,11.10
2015,09,14,17,33,11.10
2015,09,14,17,34,11.10
2015,09,14,17,35,11.10
2015,09,14,17,36,11.00
2015,09,14,17,37,11.00
2015,09,14,17,38,11.00
2015,09,14,17,39,11.00
2015,09,14,17,40,10.90
2015,09,14,17,41,10.90
2015,09,14,17,42,10.80
2015,09,14,17,43,10.80
2015,09,14,17,44,10.70
2015,09,14,17,45,10.70